Погода в Новом Посёлке

Россия / Республика Карелия     62°29′38″N   34°21′04″E
темп.,
°C
ветер,
м/с
пор.,
м/с
влажн.,
%
обл.,
%
осадки,
мм/ч
давл.,
гПа
погр.,
м
18 апреля, вс
вс1800:00+1с11965 0.0 103210
03:00−1ссв11975 0.0 103310
06:00−2св119713 0.0 103425
09:00+4всв24805 0.0 1034225
12:00+7всв34745 0.0 1034553
15:00+7всв347017 0.0 1034805
18:00+7всв35757 0.0 1034560
21:00+2всв26928 0.0 1035100
19 апреля, пн
пн1900:000в13923 0.0 103547
03:00−2всв11924 0.0 103628
06:00−2всв12895 0.0 103541
09:00+3в23623 0.0 1036327
12:00+6вюв23515 0.0 1035830
15:00+7ююв23515 0.0 1034905
18:00+6ююв125850 0.0 1033758
21:00+2всв0074100 0.0 103310
20 апреля, вт
вт2000:00+2в1179100 0.0 103310
03:00+1вюв2281100 0.0 103215
06:000вюв238388 0.0 103160
09:00+4юв35665 0.0 1031319
12:00+6юв46570 0.0 1029764
15:00+7юв46522 0.0 1027969
18:00+6юв375783 0.0 1025919
21:00+4вюв2270100 0.0 102439
21 апреля, ср
ср2100:00+3вюв2675100 0.0 1022129
03:00+2вюв2379100 0.0 102053
06:00+1всв2482100 0.0 1017100
09:00+3всв3775100 0.0 1015300
12:00+4в4869100 0.0 1012577
15:00+2в3897100 1.2 1009477
18:00+2в3897100 1.4 1007451
21:00+2вюв3898100 2.1 1005553
22 апреля, чт
чт2200:00+1вюв2698100 1.3 1004322
03:00+1вюв1499100 2.1 1003231
06:00+1ю12100100 0.9 1002120
09:00+1зюз2399100 1.4 1004197
12:00+2зюз2699100 0.7 1006255
15:00+5зюз3777100 0.9 1008780
18:00+4юз378762 0.0 1011389
21:00+4ююз499191 0.1 1012259